Regional Weather Roundup
Issued by NWS Newport/Morehead, NC

Current Version | Previous Version | Graphics & Text | Print | Product List | Glossary On
Versions: 1 2 3 4 5 6 7 8 9 10 11 12 13 14 15 16 17 18 19 20 21 22 23 24 25 26 27 28 29 30 31 32 33 34 35 36 37 38 39 40 41 42 43 44 45 46 47 48 49 50
000 ASUS42 KMHX 020013 RWRMHX WEATHER ROUNDUP FOR EASTERN NORTH CAROLINA NATIONAL WEATHER SERVICE NEWPORT/MOREHEAD CITY NC 700 PM EST THU DEC 01 2016 NOTE: "FAIR" INDICATES FEW OR NO CLOUDS BELOW 12,000 FEET WITH NO SIGNIFICANT WEATHER AND/OR OBSTRUCTIONS TO VISIBILITY NCZ015>017-031-032-045>047-102-103-020100- NORTH COAST CITY SKY/WX TMP DP RH WIND PRES REMARKS EDENTON CLEAR 55 40 57 CALM 29.90R ELIZABETH CITY CLEAR 53 35 50 NW9 29.89R KITTY HAWK NOT AVBL MANTEO CLEAR 56 44 64 NW6 29.88R $$ NCZ045>047-081-094-103-104-020100- CENTRAL COAST CITY SKY/WX TMP DP RH WIND PRES REMARKS FRISCO CLEAR 54 52 93 N3 29.87R $$ NCZ095-097-098-100-101-020100- SOUTHERN COAST CITY SKY/WX TMP DP RH WIND PRES REMARKS BEAUFORT CLEAR 60 53 77 VRB5 29.89R CEDAR ISLAND NOT AVBL JACKSONVILLE CLEAR 57 48 72 W5 29.90R PINEY ISLAND CLEAR N/A N/A N/A W5 29.88R WILMINGTON CLEAR 57 47 69 W6 29.91R $$ NCZ011>013-027>030-043-044-078>080-089-090>093-098-020100- COASTAL PLAIN CITY SKY/WX TMP DP RH WIND PRES REMARKS AHOSKIE CLEAR 49 37 61 CALM 29.91R CLINTON CLEAR 56 44 64 CALM 29.92R ELIZABETHTOWN CLEAR 55 46 72 W3 29.92R GOLDSBORO CLEAR 57 39 51 W3 29.89R GREENVILLE CLEAR 48 41 76 CALM 29.93R HAVELOCK CLEAR 60 44 55 NW6 29.90R KENANSVILLE CLEAR 50 45 81 CALM 29.91R KINSTON CLEAR 48 45 87 CALM 29.91R NEW BERN CLEAR 56 43 61 NW3 29.91R RICHLANDS CLEAR 51 49 92 CALM 29.91R ROCKY MOUNT CLEAR 48 39 71 CALM 29.91R WASHINGTON CLEAR 52 42 68 CALM 29.90R WHITEVILLE CLEAR 56 44 63 CALM 29.92R $$ AMZ130-135-150-152-154-156-158-170-250-252-270-ANZ085-086-088-633-658-670-020100- MARINE OBSERVATIONS STATION/POSITION TIME TEMP WIND PRES WAVE SWELL AIR SEA DIR/SP/G HT/PER HT/PER (UTC) (F) (DEG/KT/KT) (MB) (FT/S) (FT/S) CHESAPEAKE LIGHT NOT AVBL 64 E VA BEACH 2350 58 60 280/ 8/ 10 1010.8 4/ 8 3/ 8 DUCK 2348 59 58 310/ 12/ 14 1011.2 2 E DUCK NOT AVBL OREGON INLET 2348 280/ 6/ 8 1011.5 13E OREGON INLT 2330 63 N/A 4/ 8 3/ 8 HATTERAS CG 2348 60 65 320/ 5/ 6 1011.3 DIAMOND BUOY 2350 66 75 330/ 14/ 16 1011.2 5/ 8 3/ 8 CAPE LOOKOUT 2300 62 250/ 9/ 11 1010.9 BEAUFORT LAB 2348 61 60 340/ 4/ 4 1011.0 30 SE NEW RVR IN 2308 67 72 270/ 14/ 17 1011.7 30 SE NEW RVR IN NOT AVBL 27 SE WRIGHTSVLE 2308 65 66 250/ 16/ 21 1011.7 5 SE WRIGHTSVLE 2308 60 63 250/ 10/ 14 1011.7 225 S CAPE HAT 2350 74 74 250/ 10/ 12 1013.4 7/ 7 7/ 7 41 SE CHARLESTON 2350 67 76 280/ 19/ 23 1013.5 5/ 5 2/ 8 $$

USA.gov is the U.S. government's official web portal to all federal, state and local government web resources and services.